Participated 2 times
Between 1983 and 1984
Abelardo Ríos, Colombia
Tour de France 2026 starts from Edinburgh, Scotland in

Stats and Facts from
Tour de France.

2026   2025   2024   2023  2022  2021  2020  2019   2018  2017   2016   2015  2014  2013   2012   2011  2010   2009   2008   2007   2006   2005   2004   2003   2002   2001   2000   1999   1998   1997  1996   1995   1994   1993   1992  1991   1990   1989   1988   1987   1986   1985   1984   1983  1982  1981   1980   1979  1978  1977   1976  1975  1974  1973   1972   1971   1970  1969   1968   1967   1966   1965  1964  1963   1962   1961   1960   1959   1958   1957  1956   1955   1954   1953   1952  1951  1950  1949   1948  1947  1939   1938   1937   1936   1935   1934   1933  1932   1931   1930  1929   1928   1927   1926  1925  1924  1923   1922   1921   1920   1919  1914   1913   1912   1911   1910  1909   1908   1907   1906  1905  1904   1903 

Tourstats
Sitemap

After stage 21 - 2026:
 16451 starters.
  5513 different riders.
  689 teams.
  2419 stages.
  470 restdays.
  469752.50 km.
  5946 abandoned riders.

Click map for 1990 route.
Facts from Tour de France 1990
  |   Stages.  |   Stage winners.  |   Days in jerseys.  |   Teams.  |   All riders.  |   All riders by age.  |   All riders from.  |  

  |   Rookies.  |   Withdrawls.  |   Average speed.  |   GC.  |   Polka  |   Green  |   White  |   Summits. (In tour)  |   Miscellaneous.  |  

Stage 11 on July 11th. 1990
Pick a stage:  Pro  1  2  3  4  5  6  7  8  9  10  11  12  13  14  15  16  17  18  19  20  21  

After stage 11:    Ronan Pensec  
  Saint-GervaisAlpe-d´Huez | Dist: 182.50km. | Winner: Gianni Bugno

Podium
HC  Col de la Madeleine Thierry Claveyrolatafter88.00 km.

1  Col du Glandon Thierry Claveyrolatafter130.00 km.

HC  Alpe d'Huez Gianni Bugnoafter182.50 km.


Average speed for all riders in stage:  30,478 km./hr.

1
 Gianni Bugno  Chateau d'Ax05h 37' 51"=32,411  km/h

2
 Greg LeMond  Z05h 37' 51"=32,411  km/h

3
 Erik Breukink  PDM-Concorde05h 37' 52"+  00:00:01 =32,409  km/h

4  Thierry Claveyrolat  R.M.O.-Mavic-Liberia05h 37' 55"+  00:00:04 =32,404  km/h

5  Fabio Parra  Kelme-Ibexpress05h 37' 57"+  00:00:06 =32,401  km/h

6  Abelardo Rondón  Banesto05h 38' 31"+  00:00:40 =32,347  km/h

7  Andy Hampsten  7 Eleven-Hoonved05h 38' 31"+  00:00:40 =32,347  km/h

8  Pedro Delgado  Banesto05h 38' 31"+  00:00:40 =32,347  km/h

9  Claude Criquielion  Lotto-Super Club05h 38' 38"+  00:00:47 =32,336  km/h

10  Ronan Pensec  Z05h 38' 39"+  00:00:48 =32,334  km/h

11  Robert Millar  Z05h 38' 47"+  00:00:56 =32,322  km/h

12  Eduardo Chozas  O.N.C.E.05h 39' 00"+  00:01:09 =32,301  km/h

13  Claudio Chiappucci  Carrera Jeans-Vagabond05h 39' 17"+  00:01:26 =32,274  km/h

14  Anselmo Fuerte  O.N.C.E.05h 39' 17"+  00:01:26 =32,274  km/h

15  Fabrice Philipot  Castorama-Raleigh05h 39' 25"+  00:01:34 =32,261  km/h

16  Roberto Conti  Ariostea05h 39' 53"+  00:02:02 =32,217  km/h

17  Jörg Müller  TVM05h 40' 16"+  00:02:25 =32,181  km/h

18  Gilles Delion  Helvetia-La Suisse05h 40' 20"+  00:02:29 =32,174  km/h

19  Johan Bruyneel  Lotto-Super Club05h 41' 15"+  00:03:24 =32,088  km/h

20  Éric Boyer  Z05h 41' 24"+  00:03:33 =32,074  km/h

21  Marino Lejarreta  O.N.C.E.05h 41' 24"+  00:03:33 =32,074  km/h

22  William Palacio  Ryalcao-Postobon05h 41' 36"+  00:03:45 =32,055  km/h

23  Nelson Rodríguez  Kelme-Ibexpress05h 41' 38"+  00:03:47 =32,052  km/h

24  Pello Ruiz Cabestany  O.N.C.E.05h 42' 14"+  00:04:23 =31,996  km/h

25  Niki Rüttimann  Helvetia-La Suisse05h 42' 23"+  00:04:32 =31,982  km/h

26  Steven Rooks  Panasonic-Sportlife05h 42' 54"+  00:05:03 =31,934  km/h

27  Pascal Richard  Helvetia-La Suisse05h 43' 32"+  00:05:41 =31,875  km/h

28  Jerôme Simon  Z05h 43' 32"+  00:05:41 =31,875  km/h

29  Atle Kvå lsvoll  Z05h 43' 32"+  00:05:41 =31,875  km/h

30  Raúl Alcalá  PDM-Concorde05h 43' 32"+  00:05:41 =31,875  km/h

31  Bruno Cornillet  Z05h 43' 54"+  00:06:03 =31,841  km/h

32  Patrick Robeet  Weinmann-La Suisse-S.M.M. Uster05h 44' 11"+  00:06:20 =31,814  km/h

33  Dimitri Konychev  Alfa Lum05h 44' 56"+  00:07:05 =31,745  km/h

34  Sean Kelly  PDM-Concorde05h 45' 06"+  00:07:15 =31,730  km/h

35  Uwe Ampler  PDM-Concorde05h 45' 49"+  00:07:58 =31,664  km/h

36  Pascal Lino  R.M.O.-Mavic-Liberia05h 47' 47"+  00:09:56 =31,485  km/h

37  Charly Mottet  R.M.O.-Mavic-Liberia05h 47' 51"+  00:10:00 =31,479  km/h

38  Miguel Angel Martinez  O.N.C.E.05h 48' 39"+  00:10:48 =31,407  km/h

39  Mauro Gianetti  Helvetia-La Suisse05h 49' 14"+  00:11:23 =31,354  km/h

40  Miguel Indurain  Banesto05h 49' 46"+  00:11:55 =31,307  km/h

41  Jesus Rodriguez Magro  Banesto05h 50' 08"+  00:12:17 =31,274  km/h

42  Pablo Hernández  Ryalcao-Postobon05h 50' 08"+  00:12:17 =31,274  km/h

43  Gerardo Moncada  Ryalcao-Postobon05h 50' 14"+  00:12:23 =31,265  km/h

44  Rudy Dhaenens  PDM-Concorde05h 50' 19"+  00:12:28 =31,257  km/h

45  Stephen Hodge  O.N.C.E.05h 50' 19"+  00:12:28 =31,257  km/h

46  Pascal Simon  Castorama-Raleigh05h 52' 04"+  00:14:13 =31,102  km/h

47  Carlos Jaramillo  Ryalcao-Postobon05h 52' 27"+  00:14:36 =31,068  km/h

48  Guido Winterberg  Helvetia-La Suisse05h 54' 01"+  00:16:10 =30,931  km/h

49  Óscar Vargas  Ryalcao-Postobon05h 55' 55"+  00:18:04 =30,766  km/h

50  Tony Rominger  Chateau d'Ax05h 56' 08"+  00:18:17 =30,747  km/h

51  Bjarne Riis  Castorama-Raleigh05h 57' 35"+  00:19:44 =30,622  km/h

52  Phil Anderson  TVM05h 58' 35"+  00:20:44 =30,537  km/h

53  Jean-Claude Colotti  R.M.O.-Mavic-Liberia05h 58' 35"+  00:20:44 =30,537  km/h

54  Philippe Louviot  Toshiba05h 58' 50"+  00:20:59 =30,516  km/h

55  Álvaro Mejía  Ryalcao-Postobon05h 58' 50"+  00:20:59 =30,516  km/h

56  Vicente Ridaura  Seur05h 59' 14"+  00:21:23 =30,482  km/h

57  William Pulido  Ryalcao-Postobon05h 59' 15"+  00:21:24 =30,480  km/h

58  Nestor Mora  Kelme-Ibexpress05h 59' 15"+  00:21:24 =30,480  km/h

59  Beat Breu  Weinmann-La Suisse-S.M.M. Uster05h 59' 19"+  00:21:28 =30,475  km/h

60  Pascal Lance  Toshiba05h 59' 36"+  00:21:45 =30,451  km/h

61  Dominique Arnaud  Banesto05h 59' 36"+  00:21:45 =30,451  km/h

62  Steve Bauer  7 Eleven-Hoonved05h 59' 36"+  00:21:45 =30,451  km/h

63  Juan Castillo  Ryalcao-Postobon05h 59' 36"+  00:21:45 =30,451  km/h

64  Roberto Gusmeroli  Chateau d'Ax05h 59' 53"+  00:22:02 =30,427  km/h

65  Reynel Montoya  Ryalcao-Postobon06h 00' 15"+  00:22:24 =30,396  km/h

66  Gerrit De Vries  Buckler06h 00' 22"+  00:22:31 =30,386  km/h

67  Piotr Ugrumov  Alfa Lum06h 00' 33"+  00:22:42 =30,370  km/h

68  Jos Van Aert  PDM-Concorde06h 00' 53"+  00:23:02 =30,342  km/h

69  Christophe Lavainne  Castorama-Raleigh06h 01' 05"+  00:23:14 =30,325  km/h

70  Dag Otto Lauritzen  7 Eleven-Hoonved06h 01' 05"+  00:23:14 =30,325  km/h

71  Jean-Claude Bagot  R.M.O.-Mavic-Liberia06h 01' 22"+  00:23:31 =30,302  km/h

72  Jos Haex  Lotto-Super Club06h 01' 25"+  00:23:34 =30,297  km/h

73  Alberto Volpi  Chateau d'Ax06h 01' 25"+  00:23:34 =30,297  km/h

74  Valerio Piva  Ariostea06h 01' 25"+  00:23:34 =30,297  km/h

75  Guy Nulens  Panasonic-Sportlife06h 01' 50"+  00:23:59 =30,263  km/h

76  Thomas Wegmüller  Weinmann-La Suisse-S.M.M. Uster06h 01' 59"+  00:24:08 =30,250  km/h

77  Maarten Ducrot  TVM06h 02' 02"+  00:24:11 =30,246  km/h

78  Laurent Pillon  Histor-Sigma06h 02' 04"+  00:24:13 =30,243  km/h

79  Laurent Biondi  Histor-Sigma06h 02' 04"+  00:24:13 =30,243  km/h

80  Stephen Roche  Histor-Sigma06h 02' 04"+  00:24:13 =30,243  km/h

81  Luc Leblanc  Castorama-Raleigh06h 02' 04"+  00:24:13 =30,243  km/h

82  Javier Lukin  Banesto06h 02' 08"+  00:24:17 =30,237  km/h

83  Denis Roux  Toshiba06h 02' 30"+  00:24:39 =30,207  km/h

84  José Rodriguez  Seur06h 02' 49"+  00:24:58 =30,181  km/h

85  José Urea  Seur06h 02' 49"+  00:24:58 =30,181  km/h

86  Brian Holm  Histor-Sigma06h 02' 49"+  00:24:58 =30,181  km/h

87  Bruno Cenghialta  Ariostea06h 02' 49"+  00:24:58 =30,181  km/h

88  Gilbert Duclos-Lassalle  Z06h 02' 49"+  00:24:58 =30,181  km/h

89  François Lemarchand  Z06h 02' 49"+  00:24:58 =30,181  km/h

90  Paul Haghedooren  Histor-Sigma06h 02' 49"+  00:24:58 =30,181  km/h

91  Bob Roll  7 Eleven-Hoonved06h 02' 49"+  00:24:58 =30,181  km/h

92  Ron Kiefel  7 Eleven-Hoonved06h 02' 49"+  00:24:58 =30,181  km/h

93  Peter Roes  Lotto-Super Club06h 02' 49"+  00:24:58 =30,181  km/h

94  Wilfried Peeters  Histor-Sigma06h 02' 49"+  00:24:58 =30,181  km/h

95  Willem Van Eynde  Lotto-Super Club06h 02' 49"+  00:24:58 =30,181  km/h

96  Patrick Verschueren  Lotto-Super Club06h 02' 49"+  00:24:58 =30,181  km/h

97  Johan Museeuw  Lotto-Super Club06h 02' 49"+  00:24:58 =30,181  km/h

98  Jan Schur  Chateau d'Ax06h 02' 49"+  00:24:58 =30,181  km/h

99  Adrie Van Der Poel  Weinmann-La Suisse-S.M.M. Uster06h 02' 49"+  00:24:58 =30,181  km/h

100  Andrew Bishop  7 Eleven-Hoonved06h 03' 26"+  00:25:35 =30,129  km/h

101  Mario Kummer  Chateau d'Ax06h 03' 39"+  00:25:48 =30,111  km/h

102  Gerrit Solleveld  Buckler06h 03' 46"+  00:25:55 =30,102  km/h

103  Melchor Mauri  O.N.C.E.06h 03' 46"+  00:25:55 =30,102  km/h

104  Alberto Elli  Ariostea06h 03' 49"+  00:25:58 =30,098  km/h

105  Jean-Claude Leclercq  Helvetia-La Suisse06h 03' 55"+  00:26:04 =30,089  km/h

106  Søren Lilholt  Histor-Sigma06h 03' 58"+  00:26:07 =30,085  km/h

107  Frédéric Brun  R.M.O.-Mavic-Liberia06h 04' 11"+  00:26:20 =30,067  km/h

108  Uwe Raab  PDM-Concorde06h 04' 11"+  00:26:20 =30,067  km/h

109  Andreas Kappes  Toshiba06h 04' 51"+  00:27:00 =30,012  km/h

110  Roland Le Clerc  Toshiba06h 04' 51"+  00:27:00 =30,012  km/h

111  Alessandro Giannelli  Carrera Jeans-Vagabond06h 05' 03"+  00:27:12 =29,996  km/h

112  Giancarlo Perini  Carrera Jeans-Vagabond06h 05' 03"+  00:27:12 =29,996  km/h

113  Kurt Steinmann  Weinmann-La Suisse-S.M.M. Uster06h 05' 03"+  00:27:12 =29,996  km/h

114  Hans-Rüdi Märki  Helvetia-La Suisse06h 05' 03"+  00:27:12 =29,996  km/h

115  Juan Martinez Oliver  Banesto06h 05' 03"+  00:27:12 =29,996  km/h

116  Marino Alonso  Banesto06h 05' 03"+  00:27:12 =29,996  km/h

117  Mauro-Antonio Santaromita  Chateau d'Ax06h 05' 03"+  00:27:12 =29,996  km/h

118  Gert Jakobs  PDM-Concorde06h 05' 06"+  00:27:15 =29,992  km/h

119  Michel Dernies  Weinmann-La Suisse-S.M.M. Uster06h 06' 12"+  00:28:21 =29,902  km/h

120  Davide Cassani  Ariostea06h 06' 12"+  00:28:21 =29,902  km/h

121  Vincent Barteau  Castorama-Raleigh06h 06' 33"+  00:28:42 =29,873  km/h

122  Thierry Marie  Castorama-Raleigh06h 06' 33"+  00:28:42 =29,873  km/h

123  Thierry Laurent  R.M.O.-Mavic-Liberia06h 06' 33"+  00:28:42 =29,873  km/h

124  Eric Van Lancker  Panasonic-Sportlife06h 06' 33"+  00:28:42 =29,873  km/h

125  Marcello Siboni  Ariostea06h 06' 33"+  00:28:42 =29,873  km/h

126  Henri Manders  Helvetia-La Suisse06h 06' 33"+  00:28:42 =29,873  km/h

127  Viatcheslav Ekimov  Panasonic-Sportlife06h 06' 33"+  00:28:42 =29,873  km/h

128  Marc Sergeant  Panasonic-Sportlife06h 06' 33"+  00:28:42 =29,873  km/h

129  Carlo Bomans  Weinmann-La Suisse-S.M.M. Uster06h 06' 33"+  00:28:42 =29,873  km/h

130  Peter De Clercq  Lotto-Super Club06h 06' 33"+  00:28:42 =29,873  km/h

131  Martin Schalkers  TVM06h 06' 33"+  00:28:42 =29,873  km/h

132  Johnny Weltz  O.N.C.E.06h 06' 33"+  00:28:42 =29,873  km/h

133  Michel Vermote  R.M.O.-Mavic-Liberia06h 06' 33"+  00:28:42 =29,873  km/h

134  Patrick Tolhoek  Buckler06h 06' 33"+  00:28:42 =29,873  km/h

135  Norman Alvis  7 Eleven-Hoonved06h 06' 33"+  00:28:42 =29,873  km/h

136  Frans Maassen  Buckler06h 06' 43"+  00:28:52 =29,860  km/h

137  Edwig Van Hooydonck  Buckler06h 06' 43"+  00:28:52 =29,860  km/h

138  Sean Yates  7 Eleven-Hoonved06h 06' 49"+  00:28:58 =29,851  km/h

139  Alexandre Trubine  Alfa Lum06h 06' 53"+  00:29:02 =29,846  km/h

140  Toine  Poels  Buckler06h 07' 04"+  00:29:13 =29,831  km/h

141  Guiseppe Calcaterra  Chateau d'Ax06h 07' 24"+  00:29:33 =29,804  km/h

142  Herminio Diaz Zabala  O.N.C.E.06h 07' 48"+  00:29:57 =29,772  km/h

143  Acacio da Silva  Carrera Jeans-Vagabond06h 07' 51"+  00:30:00 =29,768  km/h

144  Erich Mächler  Carrera Jeans-Vagabond06h 07' 51"+  00:30:00 =29,768  km/h

145  Pablo Moreno  Seur06h 07' 51"+  00:30:00 =29,768  km/h

146  Jan Goessens  Weinmann-La Suisse-S.M.M. Uster06h 07' 51"+  00:30:00 =29,768  km/h

147  Giovanni Fidanza  Chateau d'Ax06h 08' 24"+  00:30:33 =29,723  km/h

148  Jean-Paul van Poppel  Panasonic-Sportlife06h 08' 55"+  00:31:04 =29,682  km/h

149  Nikolai Golovatenko  Alfa Lum06h 08' 55"+  00:31:04 =29,682  km/h

150  Jan Siemons  TVM06h 09' 05"+  00:31:14 =29,668  km/h

151  Ivan Ivanov  Alfa Lum06h 09' 35"+  00:31:44 =29,628  km/h

152  Antonio Diaz  Kelme-Ibexpress06h 09' 40"+  00:31:49 =29,621  km/h

153  Guido Bontempi  Carrera Jeans-Vagabond06h 10' 09"+  00:32:18 =29,583  km/h

154  Maximilian Sciandri  Carrera Jeans-Vagabond06h 10' 40"+  00:32:49 =29,541  km/h

155  Adriano Baffi  Ariostea06h 10' 43"+  00:32:52 =29,537  km/h

156  Rodolfo Massi  Ariostea06h 10' 43"+  00:32:52 =29,537  km/h

157  Massimo Ghirotto  Carrera Jeans-Vagabond06h 10' 43"+  00:32:52 =29,537  km/h

158  Jelle Nijdam  Buckler06h 10' 56"+  00:33:05 =29,520  km/h

159  Othmar Häfliger  Helvetia-La Suisse06h 12' 00"+  00:34:09 =29,435  km/h

160  Christian Chaubet  Toshiba06h 12' 06"+  00:34:15 =29,428  km/h

161  Vasily Zhdanov  Alfa Lum06h 12' 07"+  00:34:16 =29,426  km/h

162  Hendrik Redant  Lotto-Super Club06h 14' 44"+  00:36:53 =29,221  km/h

163  Olaf Ludwig  Panasonic-Sportlife06h 14' 58"+  00:37:07 =29,203  km/h

164  José Ángel Sarrapio  Kelme-Ibexpress06h 16' 38"+  00:38:47 =29,073  km/h

165  Jesús Rosado  Kelme-Ibexpress06h 17' 38"+  00:39:47 =28,996  km/h

166  Davis Phinney  7 Eleven-Hoonved06h 18' 38"+  00:40:47 =28,920  km/h

167  Antonio Espejo  Kelme-Ibexpress06h 18' 38"+  00:40:47 =28,920  km/h

168  Flavio Giupponi  Carrera Jeans-Vagabond06h 19' 14"+  00:41:23 =28,874  km/h

169  Asiat Saitov  Alfa Lum06h 19' 14"+  00:41:23 =28,874  km/h

170  Djamolidine Abduzhaparov  Alfa Lum06h 21' 10"+  00:43:19 =28,728  km/h

171  Francis Moreau  Histor-Sigma06h 26' 33"+  00:48:42 =28,328  km/h


Withdrawls: 9
 RiderTeamReason
169   Jesper Skibby TVMDid not start
35   Martin Earley PDM-ConcordeDid not finish
54   Éric Caritoux R.M.O.-Mavic-LiberiaDid not finish
94   Jean-Pierre Heynderickx SeurDid not finish
102   Alfred Achermann Weinmann-La Suisse-S.M.M. UsterDid not finish
121   Jean-François Bernard ToshibaDid not finish
164   Patrick Jacobs TVMDid not finish
219   Sergei Uslamin Alfa LumDid not finish
188   Eric Vanderaerden BucklerDisqualified
Todays birthdays.

1888 • Achille Serroen
1889 • Francois Magatti
1891 • Guglielmo Ceccherelli
1895 • Jules Dubois
1903 • Julien Delbecque
1915 • Emile Masson jr.
1922 • Maurice Lauze
1923 • Franco Franchi
1932 • Kurt Schneider
1940 • Franco Bitossi
1948 • Juan Zurano
1949 • Richard Pianaro
1954 • Alain Vigneron
1969 • Andrea Ferrigato
1975 • Dario Pieri
1978 • Rubén Lobato
1983 • Riccardo Riccò
1994 • Oliviero Troia
1996 • Eddie Dunbar

 

Optimized for Chrome - Edge
and Opera browsers.